Startseite
Über Mich
AHP4
Galerie
Sehschlangen
Tourenbuch
Bookmarks
Elektronik
Bewertung
Geschichten
[Tagesmessung] [Jahreswerte] [Information]

Messwerte vom 27.11.2021

Die letzten Messwerte von 23:58:47 Uhr:
KategorieMesswert
Temperatur [°C]0
Luftdruck [mBar]980
Sonneneinstrahlung0
Wind [km/h]0 aus Südwest
Niederschlag [l/m²]0
rel.Luftfeucht.96.6%
CO2 [ppm]407

Diagramme
Messwerte vom 27.11.2021
Tagesaggregation
KategorieMinimumMaximumSchnittSumme
Temperatur [°C]042.2354
Luftdruck [mBar]972980974.5021
Sonneneinstrahlung20853.2333
Wind [km/h]13
rF [%]93.596.696.46
Niederschlag [l/m²]1.2875
CO2 [ppm]401759520.0
Einordnung alsKalter Tag

Messungen an benachbarten Tagen: Zur Jahresaggregation 2021
Tabelle aller Messwerte
UhrzeitTemperatur [°C]Luftdruck [mBar]SonneWind [km/h]RichtungRegen [l/m²]rF [%]CO2 [ppm]
00:01:45 2 973 0 5 S 0 96.6 741
00:04:45 2 973 0 4 S 0 96.6 741
00:07:46 2 973 0 0 SO 0 96.6 749
00:10:47 2 973 0 5 SO 0 96.6 756
00:13:45 2 973 0 5 NO 0 96.6 759
00:16:48 2 973 0 6 SO 0 96.6 757
00:19:45 2 973 0 1 O 0 96.6 747
00:22:45 2 973 0 2 O 0 96.6 743
00:25:48 2 973 0 3 NO 0 96.6 741
00:28:45 2 973 0 3 SO 0 96.6 741
00:31:46 2 973 0 2 O 0 96.6 740
00:34:48 2 973 0 0 N 0 96.6 735
00:37:46 2 972 0 1 O 0 96.6 738
00:40:45 2 973 0 5 S 0 96.6 731
00:43:46 2 973 0 3 S 0 96.6 729
00:46:50 2 973 0 3 SW 0 96.6 727
00:49:48 2 972 0 4 SO 0 96.6 728
00:52:47 2 973 0 3 SO 0 96.6 725
00:55:45 2 973 0 8 S 0 96.6 719
00:58:44 2 973 0 5 S 0 96.6 717
01:01:46 2 973 0 4 SO 0 96.6 720
01:04:47 2 973 0 5 SO 0 96.6 723
01:07:47 2 973 0 2 O 0 96.6 716
01:10:46 2 972 0 4 S 0 96.6 723
01:13:48 2 973 0 3 SO 0 96.6 723
01:16:44 2 973 0 2 S 0 96.6 719
01:19:48 2 972 0 2 SO 0 96.6 709
01:22:47 2 973 0 8 SO 0 96.6 709
01:25:46 2 973 0 8 SO 0 96.6 713
01:28:44 2 972 0 7 S 0 96.6 717
01:31:48 2 972 0 9 SO 0 96.6 714
01:34:46 2 972 0 5 SW 0 96.6 709
01:37:46 2 973 0 2 O 0 96.6 705
01:40:46 2 973 0 2 N 0 96.6 707
01:43:47 2 972 0 2 S 0 96.6 706
01:46:45 2 972 0 3 SO 0 96.6 715
01:49:45 2 973 0 7 0 96.6 714
01:52:44 2 973 0 6 S 0 96.6 710
01:55:46 2 972 0 11 SO 0 96.6 699
01:58:48 2 972 0 8 SO 0 96.6 695
02:01:48 2 972 0 7 SO 0 96.6 700
02:04:47 2 973 0 6 SO 0 96.6 700
02:07:48 2 972 0 5 SW 0 96.6 700
02:10:47 2 972 0 2 SO 0 96.6 698
02:13:49 2 972 0 8 SO 0 96.6 700
02:16:48 2 973 0 11 SW 0 96.6 697
02:19:47 2 973 0 3 0 96.6 706
02:22:49 2 973 0 7 SW 0 96.6 710
02:25:46 2 973 0 4 SO 0 96.6 713
02:28:46 2 972 0 3 SW 0 96.6 708
02:31:48 2 972 0 3 SO 0 96.6 699
02:34:48 2 972 0 6 SO 0 96.6 693
02:37:47 2 973 0 8 S 0 96.6 689
02:40:48 2 972 0 2 O 0 96.6 685
02:43:48 2 972 0 4 S 0 96.6 680
02:46:47 2 972 0 1 NO 0 96.6 677
02:49:47 2 972 0 2 SO 0 96.6 679
02:52:45 2 973 0 1 SO 0 96.6 676
02:55:48 2 972 0 1 SO 0 96.6 678
02:58:46 2 972 0 3 SO 0 96.6 673
03:01:45 2 972 0 3 S 0 96.6 679
03:04:48 2 972 0 4 SO 0 96.6 678
03:07:48 2 973 0 6 NO 0 96.6 688
03:10:48 2 973 0 8 SO 0 96.6 683
03:13:45 2 972 0 1 N 0 96.6 683
03:16:48 2 972 0 1 N 0 96.6 682
03:19:47 2 972 0 1 N 0 96.6 682
03:22:49 2 972 0 0 SO 0 96.6 677
03:25:49 2 972 0 2 S 0 96.6 667
03:28:46 2 973 0 3 O 0 96.6 673
03:31:45 1 972 0 4 S 0 96.6 677
03:34:50 1 972 0 2 NO 0 96.6 679
03:37:45 1 972 0 3 NO 0 96.6 677
03:40:45 1 972 0 2 O 0 96.6 677
03:43:47 1 972 0 5 S 0 96.6 668
03:46:46 1 972 0 7 S 0 96.6 664
03:49:46 1 972 0 8 S 0 96.6 659
03:52:47 1 972 0 3 SW 0 96.6 664
03:55:47 1 972 0 1 S 0 96.6 676
03:58:45 1 972 0 3 O 0 96.6 669
04:01:48 1 972 0 0 SO 0 96.6 673
04:04:45 1 972 0 4 SO 0 96.6 664
04:07:47 1 972 0 2 SO 0 96.6 673
04:10:45 1 972 0 5 S 0 96.6 659
04:13:45 1 972 0 9 SO 0 96.6 655
04:16:45 1 972 0 3 S 0 96.6 653
04:19:46 1 972 0 2 S 0 96.6 655
04:22:47 1 972 0 1 O 0 96.6 653
04:25:47 1 972 0 4 SO 0 96.6 651
04:28:46 1 972 0 4 SO 0 96.6 648
04:31:51 1 972 0 3 SO 0 96.6 653
04:34:47 1 972 0 2 SO 0 96.6 664
04:37:47 1 972 0 1 SO 0 96.6 660
04:40:48 1 972 0 4 SW 0 96.6 652
04:43:44 1 973 0 0 SO 0 96.6 643
04:46:46 1 972 0 2 N 0 96.6 650
04:49:46 1 972 0 1 O 0 96.6 651
04:52:45 1 972 0 0 O 0 96.6 653
04:55:47 1 972 0 1 SO 0 96.6 651
04:58:47 1 972 0 0 N 0 96.6 653
05:01:46 1 973 0 1 SO 0 96.6 645
05:04:47 1 972 0 4 SO 0 96.6 651
05:07:47 1 972 0 4 S 0 96.6 650
05:10:47 2 972 0 8 SO 0 96.6 651
05:13:46 2 972 0 0 N 0 96.6 656
05:16:48 2 973 0 5 SO 0 96.6 653
05:19:47 2 972 0 10 SO 0 96.6 656
05:22:47 2 972 0 2 SO 0 96.6 644
05:25:45 2 972 0 4 S 0 96.6 644
05:28:49 2 972 0 2 NW 0 96.6 641
05:31:48 2 972 0 1 NO 0 96.6 644
05:34:47 2 972 0 2 SO 0 96.6 645
05:37:47 2 972 0 7 SO 0 96.6 635
05:40:48 2 973 0 5 NO 0 96.6 633
05:43:50 2 972 0 4 S 0 96.6 632
05:46:46 2 972 0 7 SW 0 96.6 632
05:49:46 2 973 0 5 SO 0 96.6 638
05:52:46 2 973 0 9 SO 0 96.6 644
05:55:46 2 972 0 2 S 0 96.6 644
05:58:46 2 973 0 5 SO 0 96.6 650
06:01:47 2 972 0 4 SO 0 96.6 641
06:04:47 2 972 0 2 S 0 96.6 637
06:07:45 2 973 0 3 O 0 96.6 635
06:10:50 2 972 0 2 SW 0 96.6 630
06:13:47 2 972 0 3 SW 0 96.6 630
06:16:47 2 973 0 1 S 0 96.6 625
06:19:46 2 972 0 3 NO 0 96.6 624
06:22:46 2 972 0 3 S 0 96.6 638
06:25:46 2 973 0 5 S 0 96.6 638
06:28:46 2 973 0 4 S 0 96.6 646
06:31:44 2 972 0 5 S 0 96.6 637
06:34:46 2 972 0 3 SW 0 96.6 597
06:37:50 2 973 0 6 SO 0 96.6 585
06:40:48 2 973 0 8 SO 0 96.6 608
06:43:46 2 973 0 2 O 0 96.6 624
06:46:49 2 972 0 4 SO 0 96.6 629
06:49:46 2 973 0 3 SO 0 96.6 635
06:52:46 2 973 0 6 SO 0 96.6 638
06:55:48 2 972 0 9 S 0 96.6 644
06:58:46 2 972 0 3 NO 0 96.6 644
07:01:47 2 972 0 9 S 0 96.6 652
07:04:48 2 973 0 3 O 0 96.6 646
07:07:46 2 972 0 5 O 0 96.6 647
07:10:46 2 972 0 9 N 0 96.6 653
07:13:45 2 973 0 6 N 0 96.6 656
07:16:43 2 972 0 3 0 96.6 661
07:19:48 2 973 0 3 O 0 96.6 666
07:22:46 2 973 0 5 S 0 96.6 659
07:25:50 2 972 0 4 SO 0 96.6 655
07:28:47 2 973 0 2 SW 0 96.6 656
07:31:47 2 973 0 7 SO 0 96.6 653
07:34:44 2 972 3 6 S 0 96.6 652
07:37:47 2 972 5 4 SW 0 96.6 651
07:40:45 2 972 7 7 SW 0 96.6 647
07:43:42 2 973 10 4 0 96.6 635
07:46:50 2 973 13 13 SO 0 96.6 632
07:49:46 2 973 20 2 SO 0 96.6 634
07:52:48 2 973 28 8 SO 0 96.6 625
07:55:46 2 973 33 1 SO 0 96.6 620
07:58:46 2 973 38 6 S 0 96.6 615
08:01:47 2 973 48 3 O 0 96.6 616
08:04:48 2 973 59 4 SO 0 96.6 607
08:07:47 2 972 69 4 O 0 96.6 607
08:10:45 2 973 74 4 S 0 96.6 605
08:13:46 2 973 82 3 0 96.6 597
08:16:49 2 973 84 1 SW 0 96.6 589
08:19:48 2 973 85 6 SO 0 96.6 588
08:22:48 2 973 89 3 N 0 96.6 592
08:25:48 2 973 97 2 O 0 96.6 585
08:28:49 2 972 102 4 O 0 96.6 581
08:31:48 2 973 99 2 NO 0 96.6 572
08:34:47 2 973 97 2 N 0 96.6 580
08:37:50 2 973 102 1 SO 0 96.6 572
08:40:49 2 973 105 1 SW 0 96.6 569
08:43:49 2 973 121 1 NW 0 96.6 571
08:46:48 2 973 131 4 SO 0 96.6 565
08:49:48 2 973 138 2 SO 0 96.6 553
08:52:46 2 973 145 1 S 0 96.6 550
08:55:48 2 973 161 3 O 0 96.6 551
08:58:46 2 973 163 2 SW 0 96.6 548
09:01:48 2 973 160 1 SO 0 96.6 548
09:04:47 2 973 154 4 O 0 96.6 548
09:07:47 2 973 154 5 S 0 96.6 548
09:10:46 2 973 150 3 0 96.6 539
09:13:49 2 973 142 2 SO 0 96.6 541
09:16:48 2 973 135 5 SO 0 96.6 538
09:19:45 2 973 137 2 O 0 96.6 525
09:22:48 2 973 140 7 SW 0 96.6 524
09:25:49 2 973 146 2 O 0 96.6 521
09:28:49 2 973 156 1 SW 0 96.6 518
09:31:50 2 973 160 4 SW 0 96.6 515
09:34:48 3 973 158 0 O 0 96.6 513
09:37:47 3 973 158 12 S 0 96.6 513
09:40:49 3 973 155 2 SO 0 96.6 512
09:43:47 3 973 152 0 S 0 96.6 516
09:46:47 3 973 149 2 SO 0 96.6 512
09:49:49 3 973 150 3 SO 0 96.6 510
09:52:46 3 973 157 7 S 0 96.6 510
09:55:45 3 973 163 3 S 0 96.6 504
09:58:47 3 973 164 4 SO 0 96.6 495
10:01:49 3 973 167 2 SO 0 96.6 492
10:04:46 3 973 177 6 SO 0 96.6 491
10:07:47 3 973 180 0 O 0 96.6 492
10:10:47 3 973 178 4 SO 0 96.6 489
10:13:48 3 973 182 3 S 0 96.6 486
10:16:46 3 973 181 4 S 0 96.6 478
10:19:45 3 973 175 3 S 0 96.6 483
10:22:47 3 973 166 1 W 0 96.6 483
10:25:47 3 973 174 4 S 0 96.6 484
10:28:47 3 973 185 2 W 0 96.6 483
10:31:52 3 973 184 5 SO 0 96.6 468
10:34:48 3 973 189 10 SW 0 96.6 474
10:37:48 3 973 190 2 SO 0 96.4 468
10:40:45 3 973 188 6 SO 0 96.1 474
10:43:47 3 973 192 4 S 0 95.9 479
10:46:44 4 973 189 11 S 0 95.7 471
10:49:45 4 973 187 8 O 0 95.7 468
10:52:47 4 973 187 5 SO 0 95.6 459
10:55:50 4 973 186 6 SO 0 95.7 459
10:58:49 4 973 185 7 SW 0 95.5 457
11:01:48 4 973 185 7 S 0 95.2 468
11:04:46 4 973 188 9 SO 0 95.1 463
11:07:45 4 973 188 4 SO 0 95.3 457
11:10:46 4 973 196 5 SO 0 95.4 449
11:13:46 4 973 201 12 S 0 95.5 448
11:16:47 4 973 203 2 W 0 95.1 448
11:19:47 4 973 204 1 SO 0 94.8 446
11:22:46 4 973 205 6 S 0 94.7 451
11:25:48 4 973 207 4 SO 0 94.7 449
11:28:48 4 973 207 6 SO 0 94.8 443
11:31:46 4 973 204 3 S 0 94.8 442
11:34:45 4 973 201 5 SO 0 94.5 433
11:37:48 4 974 198 2 NW 0 94.3 427
11:40:46 4 974 199 9 S 0 94.2 430
11:43:46 4 973 203 5 S 0 94.5 428
11:46:48 4 973 206 7 O 0 94.2 428
11:49:49 4 973 205 5 S 0 94.7 424
11:52:45 4 973 208 4 O 0 94.7 424
11:55:44 4 973 196 2 S 0 94.7 425
11:58:45 4 973 178 6 S 0 94.5 422
12:01:45 4 975 164 7 S 0 93.7 425
12:04:48 4 974 168 2 SW 0 93.5 425
12:07:48 4 974 177 7 SO 0 93.6 422
12:10:46 4 974 185 5 SO 0 93.7 419
12:13:49 4 973 189 10 SO 0 93.8 418
12:16:48 4 973 193 6 NO 0 94.4 421
12:19:47 4 973 196 5 O 0 94.7 415
12:22:48 4 973 199 11 SO 0 94.8 419
12:25:45 4 974 197 2 S 0 94.9 416
12:28:48 4 974 192 13 SO 0 95.3 412
12:31:47 4 974 198 12 SO 0 95.5 407
12:34:47 4 974 199 6 S 0 95.9 404
12:37:48 4 974 200 4 SO 0 96.4 407
12:40:47 4 974 199 6 O 0 96.5 404
12:43:49 4 974 194 6 SO 0 96.6 407
12:46:47 4 974 192 0 SO 0 96.6 407
12:49:47 4 974 193 6 S 0 96.6 406
12:52:46 4 973 193 3 S 0 96.6 405
12:55:45 4 974 192 7 0 96.6 407
12:58:46 4 974 187 5 S 0 96.6 404
13:01:46 4 973 187 2 S 0 96.6 404
13:04:47 4 974 190 1 S 0 96.6 408
13:07:48 4 974 191 3 SW 0 96.6 404
13:10:46 4 974 184 3 O 0 96.6 405
13:13:46 4 974 179 5 S 0 96.6 404
13:16:50 4 975 177 6 SW 0 96.6 407
13:19:45 4 973 176 5 S 0 96.6 407
13:22:49 4 975 176 6 SO 0 96.6 404
13:25:47 4 975 180 2 W 0 96.6 406
13:28:45 4 974 178 4 O 0 96.6 404
13:31:48 4 974 173 4 SO 0 96.6 404
13:34:47 4 973 172 3 SO 0 96.6 407
13:37:47 4 974 164 4 0 96.6 407
13:40:46 4 974 163 4 S 0 96.6 407
13:43:47 4 974 166 10 SO 0 96.6 404
13:46:47 4 974 164 6 SO 0 96.6 404
13:49:45 4 975 170 4 O 0 96.6 404
13:52:48 4 974 182 7 SO 0.2575 96.6 404
13:55:46 4 974 185 1 SO 0 96.6 404
13:58:47 4 975 193 3 SO 0 96.6 404
14:01:44 4 975 192 1 S 0 96.6 406
14:04:48 4 975 189 2 SO 0 96.6 404
14:07:46 4 975 185 3 S 0 96.6 406
14:10:49 4 974 177 3 S 0 96.6 407
14:13:49 4 975 165 2 SO 0 96.6 406
14:16:47 4 974 149 3 SO 0 96.6 407
14:19:49 4 974 133 4 SO 0.2575 96.6 406
14:22:47 4 975 141 2 SO 0 96.6 406
14:25:45 4 975 143 1 SO 0 96.6 404
14:28:47 4 975 163 1 SO 0 96.6 404
14:31:46 4 975 156 1 S 0 96.6 404
14:34:47 4 975 139 0 SO 0 96.6 407
14:37:47 4 975 128 2 S 0 96.6 407
14:40:47 4 975 140 1 SO 0 96.6 404
14:43:48 4 976 149 2 S 0 96.6 407
14:46:48 4 975 134 0 SO 0 96.6 404
14:49:45 4 975 137 3 O 0 96.6 404
14:52:49 4 976 145 3 S 0 96.6 404
14:55:46 4 975 144 3 SO 0 96.6 404
14:58:49 4 976 142 3 S 0 96.6 404
15:01:48 4 976 145 0 SW 0 96.6 407
15:04:47 4 975 146 1 SO 0.2575 96.6 404
15:07:45 4 975 154 3 S 0 96.6 407
15:10:51 4 976 135 1 W 0 96.6 404
15:13:46 4 976 113 0 W 0 96.6 407
15:16:47 4 976 96 1 SO 0 96.6 406
15:19:46 4 976 107 0 S 0 96.6 406
15:22:45 3 976 103 0 S 0 96.6 404
15:25:46 3 976 81 0 S 0 96.6 406
15:28:43 3 976 85 3 S 0 96.6 407
15:31:46 3 976 87 2 S 0 96.6 403
15:34:48 3 976 78 3 SO 0 96.6 404
15:37:47 3 976 66 2 SW 0.2575 96.6 407
15:40:46 3 976 72 0 S 0 96.6 401
15:43:49 3 976 70 1 SO 0 96.6 407
15:46:47 3 976 73 2 SW 0 96.6 404
15:49:47 3 976 82 2 S 0 96.6 407
15:52:49 3 976 76 0 SW 0 96.6 407
15:55:47 3 976 75 2 SW 0 96.6 407
15:58:49 3 976 69 2 SW 0.2575 96.6 404
16:01:48 3 976 66 2 S 0 96.6 403
16:04:44 3 976 57 4 S 0 96.6 406
16:07:48 3 976 46 4 SO 0 96.6 404
16:10:47 3 976 37 6 S 0 96.6 404
16:13:46 3 976 28 2 S 0 96.6 407
16:16:47 3 976 19 1 SO 0 96.6 407
16:19:47 3 976 18 0 SO 0 96.6 410
16:22:48 3 976 21 1 SO 0 96.6 422
16:25:49 3 976 21 1 SO 0 96.6 425
16:28:51 3 976 18 0 SO 0 96.6 428
16:31:48 3 976 14 0 S 0 96.4 428
16:34:45 3 976 9 0 S 0 96.6 431
16:37:46 2 976 5 0 S 0 96.6 434
16:40:48 2 976 0 0 S 0 96.6 436
16:43:46 2 976 0 0 S 0 96.6 447
16:46:46 2 976 0 0 S 0 96.6 452
16:49:46 2 976 0 0 S 0 96.6 452
16:52:46 2 976 0 0 S 0 96.6 460
16:55:45 2 976 0 0 S 0 96.6 466
16:58:45 2 976 0 0 S 0 96.6 466
17:01:47 2 976 0 0 S 0 96.6 468
17:04:46 2 976 0 0 S 0 96.6 462
17:07:45 2 976 0 0 S 0 96.6 468
17:10:46 2 976 0 0 S 0 96.6 471
17:13:45 2 976 0 0 S 0 96.6 476
17:16:45 2 976 0 0 S 0 96.6 483
17:19:45 2 976 0 0 S 0 96.6 485
17:22:45 2 976 0 0 S 0 96.6 495
17:25:47 2 976 0 0 S 0 96.6 501
17:28:48 2 976 0 2 S 0 96.6 505
17:31:47 2 976 0 3 S 0 96.6 509
17:34:46 2 976 0 0 O 0 96.6 501
17:37:46 2 976 0 0 SO 0 96.6 503
17:40:47 2 976 0 0 SO 0 96.6 506
17:43:48 2 976 0 1 SO 0 96.6 509
17:46:47 2 976 0 1 S 0 96.6 509
17:49:44 2 976 0 1 SO 0 96.6 505
17:52:45 2 976 0 1 S 0 96.6 515
17:55:48 2 976 0 0 SO 0 96.6 509
17:58:47 2 976 0 0 S 0 96.6 503
18:01:49 2 976 0 0 SO 0 96.6 500
18:04:48 2 976 0 0 SO 0 96.6 501
18:07:47 2 976 0 2 SO 0 96.6 489
18:10:45 2 976 0 0 S 0 96.6 471
18:13:46 2 976 0 0 NO 0 96.6 471
18:16:44 2 976 0 0 0 96.6 469
18:19:45 2 977 0 0 0 96.6 459
18:22:47 2 976 0 0 NO 0 96.6 454
18:25:46 2 976 0 0 NO 0 96.6 453
18:28:46 2 976 0 0 SO 0 96.6 456
18:31:47 2 976 0 0 SO 0 96.6 451
18:34:46 2 976 0 0 N 0 96.6 444
18:37:47 2 976 0 0 O 0 96.6 446
18:40:47 2 977 0 0 SO 0 96.6 439
18:43:46 2 977 0 0 SO 0 96.6 436
18:46:47 2 976 0 0 SO 0 96.6 436
18:49:50 2 977 0 0 SO 0 96.6 436
18:52:46 2 976 0 1 SO 0 96.6 436
18:55:44 2 977 0 1 S 0 96.6 442
18:58:46 2 976 0 2 SO 0 96.6 439
19:01:47 2 976 0 3 SO 0 96.6 436
19:04:48 2 977 0 2 SO 0 96.6 430
19:07:50 2 977 0 0 SO 0 96.6 424
19:10:47 2 976 0 2 SW 0 96.6 425
19:13:47 2 976 0 3 S 0 96.6 431
19:16:44 2 977 0 2 SO 0 96.6 430
19:19:45 2 977 0 0 SW 0 96.6 422
19:22:45 2 976 0 1 S 0 96.6 413
19:25:46 2 976 0 6 S 0 96.6 407
19:28:46 2 976 0 2 SO 0 96.6 407
19:31:46 2 977 0 1 S 0 96.6 404
19:34:47 2 976 0 2 S 0 96.6 404
19:37:47 2 977 0 1 S 0 96.6 408
19:40:44 2 977 0 3 SW 0 96.6 407
19:43:51 2 977 0 0 SW 0 96.6 404
19:46:43 2 976 0 0 O 0 96.6 401
19:49:45 2 977 0 0 S 0 96.6 404
19:52:46 2 976 0 1 S 0 96.6 407
19:55:46 2 977 0 0 S 0 96.6 407
19:58:46 2 977 0 0 SW 0 96.6 403
20:01:46 2 976 0 1 S 0 96.6 406
20:04:44 2 977 0 1 S 0 96.6 407
20:07:47 2 977 0 0 S 0 96.6 404
20:10:46 2 976 0 0 S 0 96.6 404
20:13:46 2 977 0 0 S 0 96.6 407
20:16:48 2 977 0 1 SO 0 96.6 406
20:19:47 2 977 0 0 S 0 96.6 406
20:22:47 2 977 0 0 S 0 96.6 407
20:25:47 2 977 0 1 NW 0 96.6 406
20:28:47 2 977 0 0 NW 0 96.6 407
20:31:46 2 976 0 0 0 96.6 406
20:34:43 2 977 0 0 0 96.6 404
20:37:45 1 977 0 0 0 96.6 407
20:40:49 1 977 0 0 NW 0 96.6 406
20:43:50 1 977 0 0 SO 0 96.6 407
20:46:45 1 977 0 0 S 0 96.6 430
20:49:45 1 978 0 0 S 0 96.6 427
20:52:45 1 977 0 0 S 0 96.6 436
20:55:49 1 978 0 0 SO 0 96.6 434
20:58:45 1 977 0 0 SO 0 96.6 433
21:01:48 1 977 0 1 S 0 96.6 425
21:04:46 1 978 0 2 SO 0 96.6 430
21:07:45 1 978 0 1 S 0 96.6 433
21:10:44 1 978 0 3 S 0 96.6 436
21:13:44 1 977 0 3 S 0 96.6 429
21:16:44 1 978 0 1 S 0 96.6 430
21:19:44 1 978 0 3 S 0 96.6 424
21:22:45 1 978 0 0 S 0 96.6 424
21:25:47 1 978 0 0 S 0 96.6 424
21:28:47 1 979 0 1 S 0 96.6 424
21:31:47 1 978 0 0 S 0 96.6 419
21:34:46 1 979 0 4 S 0 96.6 415
21:37:46 1 978 0 0 SO 0 96.6 416
21:40:47 1 979 0 0 SO 0 96.6 416
21:43:46 1 978 0 0 SO 0 96.6 413
21:46:46 1 979 0 1 SO 0 96.6 409
21:49:44 1 979 0 1 S 0 96.6 406
21:52:46 1 979 0 0 SO 0 96.6 407
21:55:44 1 979 0 3 SO 0 96.6 404
21:58:47 1 978 0 2 S 0 96.6 407
22:01:45 1 978 0 4 S 0 96.6 403
22:04:49 1 979 0 5 S 0 96.6 406
22:07:44 1 979 0 1 S 0 96.6 410
22:10:46 1 979 0 0 SW 0 96.6 410
22:13:46 1 977 0 3 S 0 96.6 407
22:16:47 1 977 0 3 SO 0 96.6 406
22:19:46 1 979 0 4 SO 0 96.6 409
22:22:47 1 978 0 4 S 0 96.6 404
22:25:47 1 979 0 0 SO 0 96.6 406
22:28:46 1 979 0 4 SO 0 96.6 407
22:31:44 0 979 0 5 S 0 96.6 404
22:34:46 0 979 0 4 SO 0 96.6 404
22:37:49 0 979 0 2 SO 0 96.6 407
22:40:47 0 979 0 2 SW 0 96.6 401
22:43:46 1 979 0 2 S 0 96.6 404
22:46:45 1 979 0 1 S 0 96.6 408
22:49:48 1 980 0 3 SW 0 96.6 407
22:52:46 1 979 0 2 SO 0 96.6 407
22:55:46 1 979 0 2 SO 0 96.6 408
22:58:48 1 979 0 3 SO 0 96.6 404
23:01:48 1 979 0 0 SO 0 96.6 407
23:04:48 1 979 0 2 SW 0 96.6 406
23:07:46 1 979 0 2 S 0 96.6 407
23:10:45 1 980 0 3 S 0 96.6 406
23:13:47 1 979 0 1 S 0 96.6 406
23:16:44 0 979 0 2 S 0 96.6 404
23:19:46 0 980 0 6 S 0 96.6 407
23:22:45 0 979 0 5 S 0 96.6 407
23:25:46 0 980 0 1 SO 0 96.6 407
23:28:46 0 979 0 2 SW 0 96.6 407
23:31:47 0 979 0 4 S 0 96.6 407
23:34:46 0 979 0 0 SW 0 96.6 407
23:37:45 0 979 0 1 S 0 96.6 407
23:40:44 0 979 0 0 S 0 96.6 407
23:43:47 0 979 0 2 NW 0 96.6 406
23:46:45 0 978 0 2 S 0 96.6 401
23:49:47 0 979 0 1 SO 0 96.6 404
23:52:47 0 979 0 0 S 0 96.6 404
23:55:45 0 979 0 1 SO 0 96.6 404
23:58:47 0 980 0 0 SW 0 96.6 407

Letzte Änderung : 04-Jan-2022
Copyright Jens Köhler, Wolfsburg, Obere Dorfstraße 10d